Regional Weather Roundup
Issued by NWS Sterling, VA

Home | Current Version | Previous Version | Text Only | Print | Product List | Glossary On
Versions: 1 2 3 4 5 6 7 8 9 10 11 12 13 14 15 16 17 18 19 20 21 22 23 24 25 26 27 28 29 30 31 32 33 34 35 36 37 38 39 40 41 42 43 44 45 46 47 48 49 50
000
ASUS41 KLWX 281210
RWRLWX

REGIONAL WEATHER ROUNDUP
NATIONAL WEATHER SERVICE BALTIMORE MD/WASHINGTON DC
700 AM EST FRI NOV 28 2014

Note: "FAIR" indicates few or no clouds below 12,000 feet
with no significant weather and/or obstructions to visibility.
 TC=TEMPERATURE CELSIUS

 * =Non NWS site. Station does not report precipitation (e.g. rain,
    snow, etc.), thunder, or fog.

DCZ001-MDZ009-015-VAZ040>042-051-053>054-281300-
WASHINGTON METRO

CITY           SKY/WX    TMP DP  RH WIND       PRES   REMARKS
WASHINGTON NAT PTCLDY    36  21  54 W14       30.28R WCI  27
DULLES         PTCLDY    31  20  63 W10G22    30.27R WCI  22
ANDREWS AFB    CLEAR     33  20  61 W14       30.24R WCI  23
FT BELVOIR     CLEAR     33  20  58 NW10      30.29R WCI  25
QUANTICO       CLEAR     33  21  61 NW14      30.30R WCI  23
COLLEGE PARK*  CLEAR     34  23  64 W8        30.26R WCI  27
LEESBURG*      CLOUDY    34  27  75 W7        30.28R
GAITHERSBURG*  PTCLDY    30  19  64 W7        30.28R

$$

MDZ006>007-011-014-281300-
BALTIMORE METRO

CITY           SKY/WX    TMP DP  RH WIND       PRES   REMARKS
BWI AIRPORT    PTCLDY    31  22  69 W10       30.24R WCI  22
MD SCIENCE CTR   N/A     33  22  63 MISG      30.24R
MARTIN STATE   CLEAR     34  27  75 W10G17    30.25  WCI  26
ANNAPOLIS      CLEAR     33  21  61 W6        30.25R

$$

MDZ012-015-019>023-281300-
MARYLAND EASTERN SHORE

CITY           SKY/WX    TMP DP  RH WIND       PRES   REMARKS
OCEAN CITY     CLEAR     31  24  75 NW5       30.22R
SALISBURY      CLEAR     34  23  64 W5        30.23R
BAY BRIDGE AP*   N/A     34  23  64 W10G17    30.25R WCI  26
CAMBRIDGE*     CLEAR     36  23  60 NW9       30.25R WCI  29
EASTON*        CLEAR     36  27  69 NW12G17   30.28R WCI  27

$$

MDZ017>025-281300-
SOUTHERN MARYLAND

CITY           SKY/WX    TMP DP  RH WIND       PRES   REMARKS
PATUXENT RIVER PTCLDY    31  21  66 W8        30.26R WCI  23
ST INIGOES     CLEAR     32  20  61 VRB3      30.26R
LEONARDTOWN*   CLEAR     30  21  69 W5        30.28R

$$

MDZ003>005-281300-
NORTH CENTRAL MARYLAND

CITY           SKY/WX    TMP DP  RH WIND       PRES   REMARKS
FREDERICK*     CLOUDY    34  19  55 W10       30.28R WCI  26
HAGERSTOWN APT CLOUDY    32  23  69 N9        30.24R WCI  24
WESTMINSTER*   FLURRIES  30  25  80 NW6       30.22R

$$

MDZ501>502-281300-
WESTERN MARYLAND

CITY           SKY/WX    TMP DP  RH WIND       PRES   REMARKS
OAKLAND*       CLOUDY    19 N/A N/A W9        30.15S WCI   9
CUMBERLAND*    PTCLDY    32  18  55 SW5       30.32R

$$

VAZ025>031-281300-
SHENANDOAH VALLEY

CITY           SKY/WX    TMP DP  RH WIND       PRES   REMARKS
WINCHESTER*    CLEAR     32  18  55 W14G21    30.25S WCI  22
FRONT ROYAL*   CLOUDY    32  19  59 NW7       30.27R
LURAY*         PTSUNNY   32  23  69 SW9       30.27R WCI  24
NEW MARKET*    CLOUDY    29  22  74 W3        30.27R
STAUNTON*      CLOUDY    28  15  58 NW8       30.29R WCI  20
WAYNESBORO*    FAIR      26  14  60 NW6       30.26R

$$

WVZ021-048>050-054>055-281300-
EASTERN WEST VIRGINIA PANHANDLE

CITY           SKY/WX    TMP DP  RH WIND       PRES   REMARKS
MARTINSBURG    CLOUDY    33  17  51 W18G24    30.25R WCI  22
PETERSBURG*    CLOUDY    29  24  81 CALM      30.30R

$$

VAZ036>039-050-281300-
CENTRAL FOOTHILLS

CITY           SKY/WX    TMP DP  RH WIND       PRES   REMARKS
CHARLOTTESVILL PTCLDY    29  19  66 NW3       30.29R
CULPEPER*      CLEAR     30  23  74 CALM      30.29R
ORANGE*        CLOUDY    32  27  80 CALM      30.30R
GORDONSVILLE*  CLOUDY    32  21  63 NW3       30.29R
WARRENTON*     FAIR      26  25  96 CALM      30.28R

$$

VAZ055>057-281300-
NORTH AND CENTRAL PIEDMONT

CITY           SKY/WX    TMP DP  RH WIND       PRES   REMARKS
FREDERICKSBRG* CLEAR     28  23  81 CALM      30.29R
STAFFORD*      CLEAR     25  19  79 CALM      30.34R

$$

NCZ024-NYZ072-PAZ021-071-VAZ022-071-281300-
OTHER REGIONAL OBSERVATIONS

CITY           SKY/WX    TMP DP  RH WIND       PRES   REMARKS
NEW YORK CITY  CLEAR     31  21  66 NW8       30.15R WCI  23
PHILADELPHIA   PTCLDY    32  22  66 W10       30.19R WCI  24
PITTSBURGH     FLURRIES  25  15  66 NW21      30.29R WCI  11
ROANOKE        MOCLDY    31  15  52 W6        30.32R
RICHMOND       PTCLDY    30  24  78 NW5       30.29R
RALEIGH        CLEAR     27  21  78 CALM      30.32R

$$

ANZ530>537-281300-
MARINE OBSERVATIONS

STATION/POSITION TIME  TEMP    WIND        PRES
                       AIR SEA DIR/SP/G
                 (UTC) (F)     (DEG/KT/KT) (MB)
THOMAS PT LIGHT  1200   34 46  290/ 15/ 17 1025.3R
BALT KEY BRIDGE  1200   34     270/ 12/ 15 1024.0R
COVE POINT       1200   33     320/  9/ 10 1024.3S
LEWISETTA        1200   34 46  280/  7/  8 1024.5F
SOLOMONS ISLAND  1200      48                N/A
PINEY POINT      1200          330/ 23/ 25   N/A

$$




USA.gov is the U.S. government's official web portal to all federal, state and local government web resources and services.